Regional Weather Roundup
Issued by NWS

Home | Current Version | Previous Version | Text Only | Print | Product List | Glossary On
Versions: 1 2 3 4 5 6 7 8 9 10 11 12 13 14 15 16 17 18 19 20 21 22 23 24 25 26 27 28 29 30 31 32 33 34 35 36 37 38 39 40 41 42 43 44 45 46 47 48 49 50
352
ASUS43 KFSD 281302
RWRSD

WEATHER ROUNDUP FOR SOUTH DAKOTA
NATIONAL WEATHER SERVICE SIOUX FALLS SD
800 AM CDT SUN AUG 28 2016

NOTE: "FAIR" INDICATES FEW OR NO CLOUDS BELOW 12,000 FEET WITH NO
SIGNIFICANT WEATHER AND/OR OBSTRUCTIONS TO VISIBILITY.


SDZ001>005-009-010-012>017-281400-
NORTHWEST AND NORTH CENTRAL SOUTH DAKOTA

CITY           SKY/WX    TMP DP  RH WIND       PRES   REMARKS
BUFFALO          N/A     60  55  83 CALM      29.87R
FAITH            N/A     62  57  83 S12       29.91R
MOBRIDGE       CLEAR     69  62  78 SE14      29.89R
$$

SDZ012>016-024>037-041>051-057-063-072>074-281400-
SOUTHWEST AND SOUTH CENTRAL SOUTH DAKOTA

CITY           SKY/WX    TMP DP  RH WIND       PRES   REMARKS
RAPID CTY ARPT CLEAR     52  49  89 CALM      29.95R
PIERRE         CLEAR     66  64  93 SE7       29.92R
CUSTER         CLEAR     57  32  38 NW8       30.11R
ELLSWORTH AFB  CLEAR     56  50  80 W5        29.94R
PHILIP         CLEAR     63  61  93 SE6       29.92R
PINE RIDGE     CLEAR     62  59  90 SW7       30.01R
WINNER         FAIR      72  65  78 SW20G25   29.97R
$$

SDZ004>011-016>023-039-040-281400-
NORTHEAST SOUTH DAKOTA

CITY           SKY/WX    TMP DP  RH WIND       PRES   REMARKS
ABERDEEN       SUNNY     67  64  90 SE13      29.98R
WATERTOWN      SUNNY     67  61  81 SE10      30.05S
BROOKINGS      PTSUNNY   65  63  93 SE10      30.07S
$$

SDZ017-020-022-023-036>040-048>070-281400-
SOUTHEAST SOUTH DAKOTA

CITY           SKY/WX    TMP DP  RH WIND       PRES   REMARKS
SIOUX FALLS    MOSUNNY   67  65  93 SE7       30.08S
HURON          SUNNY     67  64  90 SE12G22   29.99R
CHAMBERLAIN    SUNNY     72  68  87 S5        29.98R
MITCHELL       SUNNY     68  65  90 SE9       30.01S
YANKTON        SUNNY     66  63  88 SE8       30.04R
$$

ABBREVIATIONS USED IN REMARKS
   TC - TEMPERATURE IN CELSIUS
  WCI - WIND CHILL INDEX
   HX - HEAT INDEX
  VSB - VISIBILITY





USA.gov is the U.S. government's official web portal to all federal, state and local government web resources and services.